Вернуться в каталог

STARLINK-34012

АктивенСвязьVLEO
NORAD 63926·PAYLOAD·🇺🇸 United States

Запущен May 13, 2025 с Vandenberg Space Force Base

Loading…

Ближайшие Пролёты (ближайшие 24 часа)

TLE

СвежийSource: CelesTrak SupGP

Эпоха: Sep 14, 2026, 22:41 UTC

1 63926C 25098A   26257.94562500 -.00044011  00000+0 -15309-2 0  2571
2 63926  70.0002 155.5133 0003157 269.2758 157.7083 15.29603966    14

Отслеживайте STARLINK-34012 в реальном времени с AllMySat

Download on the App Store